TimeCDT,TemperatureF,Dew PointF,Humidity,Sea Level PressureIn,VisibilityMPH,Wind Direction,Wind SpeedMPH,Gust SpeedMPH,PrecipitationIn,Events,Conditions,WindDirDegrees,DateUTC
12:53 AM,42.1,39.9,92,30.19,10.0,Calm,Calm,-,N/A,,Clear,0,2013-05-13 05:53:00
1:53 AM,41.0,39.0,93,30.19,10.0,Calm,Calm,-,N/A,,Clear,0,2013-05-13 06:53:00
2:53 AM,39.9,37.9,93,30.19,10.0,Calm,Calm,-,N/A,,Clear,0,2013-05-13 07:53:00
3:53 AM,39.0,37.0,93,30.20,10.0,Calm,Calm,-,N/A,,Clear,0,2013-05-13 08:53:00
4:53 AM,39.0,37.9,96,30.20,10.0,Calm,Calm,-,N/A,,Clear,0,2013-05-13 09:53:00
5:53 AM,39.0,37.0,93,30.22,10.0,Calm,Calm,-,N/A,,Clear,0,2013-05-13 10:53:00
6:53 AM,42.1,39.9,92,30.25,10.0,Calm,Calm,-,N/A,,Clear,0,2013-05-13 11:53:00
7:53 AM,50.0,44.1,80,30.26,10.0,SSW,3.5,-,N/A,,Partly Cloudy,200,2013-05-13 12:53:00
8:53 AM,59.0,42.1,53,30.27,10.0,SSW,8.1,-,N/A,,Clear,210,2013-05-13 13:53:00
9:53 AM,62.1,41.0,46,30.27,10.0,Variable,4.6,-,N/A,,Clear,0,2013-05-13 14:53:00
10:53 AM,64.9,42.1,43,30.29,10.0,Variable,3.5,-,N/A,,Mostly Cloudy,0,2013-05-13 15:53:00
11:53 AM,68.0,39.0,35,30.27,10.0,NW,4.6,-,N/A,,Clear,320,2013-05-13 16:53:00
12:53 PM,70.0,39.0,32,30.25,10.0,NNW,6.9,-,N/A,,Clear,340,2013-05-13 17:53:00
1:53 PM,71.1,37.0,29,30.23,10.0,Variable,3.5,-,N/A,,Clear,0,2013-05-13 18:53:00
3:53 PM,72.0,41.0,33,30.19,10.0,Variable,3.5,-,N/A,,Clear,0,2013-05-13 20:53:00
4:53 PM,71.1,41.0,34,30.16,10.0,South,6.9,-,N/A,,Mostly Cloudy,190,2013-05-13 21:53:00
5:53 PM,72.0,43.0,35,30.15,10.0,WSW,5.8,-,N/A,,Clear,240,2013-05-13 22:53:00
7:53 PM,63.0,52.0,67,30.15,10.0,Calm,Calm,-,N/A,,Clear,0,2013-05-14 00:53:00
8:53 PM,57.9,51.1,78,30.16,10.0,Calm,Calm,-,N/A,,Clear,0,2013-05-14 01:53:00
9:53 PM,55.0,51.1,86,30.17,10.0,Calm,Calm,-,N/A,,Clear,0,2013-05-14 02:53:00
10:53 PM,53.1,50.0,89,30.17,10.0,South,3.5,-,N/A,,Clear,170,2013-05-14 03:53:00
11:53 PM,53.1,50.0,89,30.15,10.0,Calm,Calm,-,N/A,,Clear,0,2013-05-14 04:53:00